Seattle, WA
on Wednesday, February 13, 2013

Wednesday
Previous Day Next Day
Daily Summary
 ActualAverageRecord
Temperature
Mean Temperature °F 43°F  
Max Temperature 49°F 50°F 59°F (1996)
Min Temperature 45°F 37°F 18°F (1949)
Degree Days
Heating Degree Days 18 22  
Month to date heating degree days 262 286  
Since 1 July heating degree days 2836 2935  
Cooling Degree Days 0 0  
Month to date cooling degree days 0 0  
Year to date cooling degree days 0 0  
Moisture
Dew Point 41°F   
Average Humidity 82    
Maximum Humidity 93    
Minimum Humidity 71    
Precipitation
Precipitation 0.09 in 0.13 in 1.40 in (1982)
Month to date precipitation 0.47 1.71  
Year to date precipitation 4.63 7.28  
Snow
Snow 0.00 in in 1.10 in (1986)
Month to date snowfall 0.0  
Since 1 July snowfall 0.6  
Snow Depth 0.00 in   
Wind
Wind Speed 9 mph   
Max Wind Speed 29 mph   
Max Gust Speed 38 mph   
Visibility 10 miles   
Events Rain   

Key: T is trace of precipitation, MM is missing value
Source: NWS Daily Summary
Time(PST)TemperatureDew PointHumidity Pressure Visibility Wind DirectionWind SpeedGust SpeedPrecipitationEvents Conditions
12:53 AM 48.0°F 43.0°F 83% 30.35 in 10.0 miles SSW 13.8 mph 20.7 mph N/A   Overcast
1:35 AM 48.2°F 42.8°F 82% 30.34 in 10.0 miles SSW 15.0 mph 23.0 mph N/A   Overcast
1:53 AM 48.0°F 43.0°F 83% 30.36 in 10.0 miles SSW 13.8 mph 20.7 mph N/A   Overcast
2:24 AM 46.4°F 44.6°F 93% 30.34 in 8.0 miles SW 15.0 mph - 0.00 in Rain Light Rain
2:46 AM 46.4°F 44.6°F 93% 30.34 in 10.0 miles SSW 15.0 mph - 0.00 in   Overcast
2:53 AM 46.9°F 44.1°F 90% 30.36 in 10.0 miles SSW 15.0 mph - 0.00 in   Overcast
3:30 AM 46.4°F 42.8°F 87% 30.34 in 10.0 miles SSW 11.5 mph - N/A   Mostly Cloudy
3:53 AM 46.9°F 41.0°F 80% 30.38 in 10.0 miles SW 8.1 mph - N/A   Mostly Cloudy
4:15 AM 46.4°F 41.0°F 81% 30.36 in 10.0 miles SW 10.4 mph - N/A   Mostly Cloudy
4:53 AM 45.0°F 39.0°F 80% 30.39 in 10.0 miles SSW 13.8 mph - N/A   Overcast
5:53 AM 44.6°F 39.2°F 81% 30.37 in 10.0 miles SSW 10.4 mph - N/A   Overcast
6:02 AM 44.6°F 39.2°F 81% 30.37 in 10.0 miles SSW 11.5 mph - N/A   Mostly Cloudy
6:53 AM 45.0°F 37.9°F 76% 30.41 in 10.0 miles SW 10.4 mph - N/A   Mostly Cloudy
7:53 AM 45.0°F 39.0°F 80% 30.43 in 10.0 miles SSW 10.4 mph - N/A   Overcast
8:53 AM 45.0°F 37.9°F 76% 30.44 in 10.0 miles SSW 10.4 mph - N/A   Overcast
9:53 AM 45.0°F 37.9°F 76% 30.46 in 10.0 miles SSW 10.4 mph - N/A   Overcast
10:53 AM 46.0°F 39.0°F 76% 30.46 in 10.0 miles SW 9.2 mph - N/A   Overcast
11:53 AM 46.9°F 39.0°F 74% 30.46 in 10.0 miles SSW 10.4 mph - N/A   Overcast
12:53 PM 48.0°F 39.0°F 71% 30.46 in 10.0 miles SW 10.4 mph - N/A   Overcast
1:53 PM 48.0°F 39.0°F 71% 30.45 in 10.0 miles SSW 10.4 mph - N/A   Overcast
2:53 PM 48.0°F 39.0°F 71% 30.46 in 10.0 miles SW 8.1 mph - N/A   Overcast
3:05 PM 48.2°F 39.2°F 71% 30.44 in 10.0 miles SW 9.2 mph - N/A   Overcast
3:53 PM 48.9°F 39.0°F 69% 30.46 in 10.0 miles SW 6.9 mph - N/A   Overcast
4:53 PM 48.0°F 39.9°F 74% 30.47 in 10.0 miles SW 8.1 mph - N/A   Overcast
5:14 PM 46.4°F 39.2°F 76% 30.44 in 10.0 miles SSW 6.9 mph - 0.00 in Rain Light Rain
5:32 PM 46.4°F 39.2°F 76% 30.45 in 10.0 miles SW 5.8 mph - 0.00 in   Overcast
5:53 PM 46.9°F 39.9°F 77% 30.48 in 10.0 miles SSW 5.8 mph - 0.00 in   Overcast
6:53 PM 46.9°F 41.0°F 80% 30.48 in 10.0 miles SSW 4.6 mph - N/A   Overcast
7:08 PM 46.4°F 41.0°F 81% 30.46 in 10.0 miles Calm Calm - N/A   Overcast
7:53 PM 46.0°F 41.0°F 83% 30.49 in 8.0 miles South 3.5 mph - 0.01 in Rain Light Rain
8:53 PM 46.0°F 43.0°F 89% 30.50 in 6.0 miles SE 4.6 mph - 0.06 in Rain Light Rain
9:12 PM 44.6°F 42.8°F 93% 30.47 in 9.0 miles SSW 5.8 mph - 0.01 in   Overcast
9:27 PM 44.6°F 42.8°F 93% 30.47 in 8.0 miles SSW 9.2 mph - 0.01 in   Overcast
9:53 PM 45.0°F 42.1°F 90% 30.51 in 6.0 miles SSW 8.1 mph - 0.02 in Rain Light Rain
10:53 PM 45.0°F 42.1°F 90% 30.52 in 10.0 miles SSW 6.9 mph - 0.00 in   Light Drizzle
11:53 PM 45.0°F 41.0°F 86% 30.53 in 10.0 miles SSW 5.8 mph - 0.00 in   Overcast
Moon Phase
Feb. 13 Feb. 17 Feb. 25 Mar. 04 Mar. 11
Sunrise:07:17 AM (PST) Moon Rise:08:30 AM (PST)2/13
Sunset:05:30 PM (PST) Moon Set:10:00 PM (PST)2/13

Copyright © 2014 The Weather Underground, Inc.